Tracking 25963 objects as of 12-Aug-2022
HD Live streaming from Space Station
objects crossing your sky now

OBJECT L

Track OBJECT L now!
10-day predictions


NORAD ID: 43841
Int'l Code: 2018-102L
Perigee: 518.8 km
Apogee: 538.9 km
Inclination: 97.5 °
Period: 95.1 minutes
Semi major axis: 6899 km
RCS: Unknown
Launch date: December 7, 2018
Source: (TBD)
Launch site: Jiuquan Satellite Launch Center, China (JSC)
aabbcc
Your satellite tracking list
Your tracking list is empty




NASA's NSSDC Master Catalog

Two Line Element Set (TLE):
1 43841U 18102L   22224.26689216  .00006868  00000-0  37304-3 0  9992
2 43841  97.5158 302.7717 0014562   0.0473  72.3904 15.14745147202880
Source of the keplerian elements: AFSPC